[[{"header":{"parameterUnit":"m.s-1","parameterCategory":2,"la1":30.2991,"la2":30.254,"lo1":-89.0895,"lo2":-89.0444,"dy":0.0017,"dx":0.0017,"nx":28,"ny":28,"refTime":"2025-02-05T09:00:00:Z","depth":"0","parameterNumber":2,"parameterNumberName":"U-component_of_CURRENTS"},"data":[0,0,0,0,0,0,0,0,0,0,0,0,0,0,0,0,0,0,0,0,0,0,0,0,0,0,0,0,0,0,0,0,0,0,0,0,0,0,0,0,0,0,0,0,0,0,0,0,0,0,0,0,0,0,0,0,0,0,-0.232,-0.232,0,-0.2265,-0.2264,-0.2263,-0.2203,-0.2203,-0.2203,-0.2202,-0.2065,-0.2062,-0.2058,0,0,0,0,0,0,0,0,0,0,0,0,0,-0.2297,-0.2297,-0.232,-0.232,-0.232,-0.2265,-0.2264,-0.2263,-0.2203,-0.2203,-0.2203,-0.2202,-0.2066,-0.2062,-0.2058,0,0,0,0,0,0,0,0,0,0,0,0,0,-0.2275,-0.2297,-0.232,-0.2288,-0.2285,-0.2266,-0.2264,-0.2262,-0.2203,-0.2203,-0.2203,-0.2202,-0.2068,-0.2063,-0.2057,-0.2034,0,0,-0.2042,-0.204,0,0,0,0,0,0,0,0,-0.2276,-0.2275,-0.2293,-0.2291,-0.2287,-0.2246,-0.2206,-0.2184,-0.2203,-0.2228,-0.2202,-0.2202,-0.2123,-0.2113,-0.2095,-0.2027,-0.2021,-0.2041,-0.2038,-0.2036,-0.2035,0,0,0,0,0,0,0,-0.2278,-0.2276,-0.2292,-0.2293,-0.229,-0.2251,-0.2248,-0.2201,-0.2171,-0.2225,-0.2223,-0.2227,-0.2119,-0.21,-0.2092,-0.2019,-0.2041,-0.2037,-0.2034,-0.2032,-0.1923,-0.1924,0,0,0,0,0,0,-0.2302,-0.2279,-0.2293,-0.2291,-0.2288,-0.2253,-0.2248,-0.2255,-0.2173,-0.2163,-0.2228,-0.2225,-0.2109,-0.2098,-0.2086,-0.2066,-0.2036,-0.2031,-0.2028,-0.1923,-0.1923,-0.1924,0,0,0,0,0,0,-0.2302,-0.2304,-0.2296,-0.2288,-0.2285,-0.2255,-0.2261,-0.2254,-0.224,-0.2177,-0.2164,-0.2223,-0.2109,-0.2094,-0.2048,-0.206,-0.2029,-0.2024,-0.1923,-0.1923,-0.1924,-0.2017,0,0,0,0,0,0,-0.2302,-0.2304,-0.231,-0.229,-0.2287,-0.2292,-0.2262,-0.2253,-0.2246,-0.2241,-0.2169,-0.2155,-0.2107,-0.2056,-0.2043,-0.2052,-0.202,-0.1923,-0.1923,-0.1923,-0.2014,-0.2021,-0.2026,0,0,0,0,0,-0.2301,-0.2312,-0.231,-0.2312,-0.2298,-0.2293,-0.2287,-0.2259,-0.2247,-0.2243,-0.2193,-0.2158,-0.2049,-0.2052,-0.2036,-0.2045,-0.1923,-0.1923,-0.1923,-0.2011,-0.2019,-0.2026,0,0,0,0,0,0,-0.2291,-0.2307,-0.2304,-0.2316,-0.2311,-0.2286,-0.228,-0.2268,-0.2226,-0.2219,-0.2156,-0.2139,-0.2102,-0.206,-0.2065,-0.2014,-0.1981,-0.1979,-0.2053,-0.206,-0.2067,-0.2072,-0.2016,0,0,0,0,0,-0.2299,-0.2315,-0.2318,-0.2324,-0.2328,-0.2307,-0.23,-0.2288,-0.2257,-0.2238,-0.2192,-0.2138,-0.2091,-0.2067,-0.2016,-0.1989,-0.1969,-0.1984,-0.1991,-0.1997,-0.199,-0.1978,-0.1983,-0.1925,-0.1925,-0.1925,0,0,-0.2291,-0.2307,-0.231,-0.2324,-0.2315,-0.2325,-0.23,-0.23,-0.2297,-0.2229,-0.2201,-0.2155,-0.2087,-0.2055,-0.2036,-0.2023,-0.2008,-0.1997,-0.2003,-0.1992,-0.1979,-0.1985,-0.199,-0.1925,-0.1925,-0.1925,0,0,-0.2295,-0.2306,-0.2324,-0.2333,-0.2344,-0.2337,-0.2345,-0.2331,-0.2313,-0.229,-0.2239,-0.2203,-0.2135,-0.2092,-0.206,-0.207,-0.2039,-0.2058,-0.2096,-0.2086,-0.2091,-0.2095,-0.2107,-0.2112,-0.2065,-0.2065,-0.2065,0,-0.2283,-0.2314,-0.2323,-0.2348,-0.2356,-0.235,-0.2365,-0.235,-0.232,-0.2307,-0.2292,-0.2204,-0.2151,-0.211,-0.2112,-0.2085,-0.2082,-0.2078,-0.2097,-0.21,-0.2103,-0.2113,-0.2117,-0.207,-0.2069,-0.2069,-0.2068,0,-0.2302,-0.2331,-0.2343,-0.2377,-0.2383,-0.2397,-0.2396,-0.2393,-0.2379,-0.2362,-0.2326,-0.2262,-0.2208,-0.2196,-0.2152,-0.2142,-0.2137,-0.2108,-0.2085,-0.2115,-0.2124,-0.2126,-0.2076,-0.2075,-0.2073,-0.2072,0,0,-0.2257,-0.2341,-0.2344,-0.2368,-0.2403,-0.2405,-0.2419,-0.2419,-0.2417,-0.2394,-0.2384,-0.2316,-0.2289,-0.225,-0.2203,-0.2195,-0.2219,-0.2165,-0.2163,-0.2191,-0.222,-0.2258,-0.2263,-0.22,-0.2201,-0.2201,-0.2231,0,-0.2263,-0.2329,-0.2362,-0.2398,-0.2425,-0.2438,-0.2445,-0.2445,-0.2437,-0.2426,-0.2384,-0.2349,-0.2308,-0.2284,-0.2273,-0.2219,-0.2223,-0.2214,-0.2173,-0.2172,-0.2213,-0.2266,-0.2104,-0.212,-0.2233,-0.2233,-0.2233,0,-0.2259,-0.2311,-0.2364,-0.2418,-0.2427,-0.2441,-0.2454,-0.2459,-0.2456,-0.2449,-0.2432,-0.2399,-0.2369,-0.2334,-0.2292,-0.2292,-0.2261,-0.2236,-0.2236,-0.2234,-0.2213,-0.21,-0.2119,-0.2006,-0.2236,-0.2235,-0.2235,0,-0.2223,-0.2298,-0.2344,-0.2364,-0.2427,-0.2434,-0.2448,-0.2458,-0.2458,-0.246,-0.2467,-0.2436,-0.2414,-0.2379,-0.2335,-0.2311,-0.2309,-0.2264,-0.2278,-0.2281,-0.2113,-0.2102,-0.2022,-0.2245,-0.2245,-0.2245,-0.2245,0,-0.2217,-0.2242,-0.2328,-0.2354,-0.2375,-0.2414,-0.2424,-0.2438,-0.2456,-0.2465,-0.2464,-0.2468,-0.2424,-0.2418,-0.2369,-0.2352,-0.2338,-0.2298,-0.2293,-0.2146,-0.2138,-0.2007,-0.2014,-0.2246,-0.2246,-0.2245,-0.2245,0,-0.2163,-0.2233,-0.2277,-0.235,-0.2365,-0.2368,-0.2409,-0.242,-0.2446,-0.2463,-0.2467,-0.2491,-0.2498,-0.2477,-0.2434,-0.24,-0.2318,-0.2367,-0.2222,-0.22,-0.211,-0.213,-0.2144,-0.2087,-0.2381,-0.2382,-0.2383,0,-0.2143,-0.2173,-0.2256,-0.2282,-0.2313,-0.2335,-0.2357,-0.2397,-0.2418,-0.2474,-0.2482,-0.2517,-0.252,-0.2515,-0.2461,-0.2425,-0.2356,-0.2277,-0.2197,-0.2104,-0.212,-0.2148,-0.2099,-0.2012,-0.201,-0.2008,-0.2007,0,-0.2094,-0.213,-0.2176,-0.2227,-0.2259,-0.2288,-0.2324,-0.2343,-0.2399,-0.2422,-0.2458,-0.2468,-0.2491,-0.2394,-0.2393,-0.2337,-0.2188,-0.2245,-0.2144,-0.1843,-0.1866,-0.1806,-0.2023,-0.1991,-0.1993,-0.1994,-0.1995,-0.1995,-0.2034,-0.205,-0.2114,-0.2143,-0.2189,-0.2211,-0.2192,-0.2257,-0.227,-0.2281,-0.2384,-0.2348,-0.2297,-0.2263,-0.221,-0.1999,-0.213,-0.1877,-0.1918,-0.1961,-0.1882,-0.2116,-0.2091,-0.2093,-0.2094,-0.2096,-0.2097,0,-0.1932,-0.1973,-0.2021,-0.2048,-0.2055,-0.2105,-0.2141,-0.2108,-0.2093,-0.2147,-0.2167,-0.2095,-0.1979,-0.1887,-0.1711,-0.163,-0.1565,-0.1588,-0.1494,-0.1465,-0.1614,-0.1565,-0.1429,-0.1429,-0.1429,-0.1429,-0.1429,-0.143,-0.1876,-0.189,-0.1921,-0.1893,-0.1911,-0.1856,-0.1849,-0.1828,-0.1829,-0.1762,-0.1713,-0.1752,-0.1627,-0.1613,-0.1377,-0.1309,-0.124,-0.1275,-0.1339,-0.1318,-0.1344,-0.1368,-0.1315,-0.1129,-0.1129,-0.1044,-0.1044,-0.1043]},{"header":{"parameterUnit":"m.s-1","parameterCategory":2,"la1":30.2991,"la2":30.254,"lo1":-89.0895,"lo2":-89.0444,"dy":0.0017,"dx":0.0017,"nx":28,"ny":28,"refTime":"2025-02-05T09:00:00:Z","depth":"0","parameterNumber":3,"parameterNumberName":"V-component_of_CURRENTS"},"data":[0,0,0,0,0,0,0,0,0,0,0,0,0,0,0,0,0,0,0,0,0,0,0,0,0,0,0,0,0,0,0,0,0,0,0,0,0,0,0,0,0,0,0,0,0,0,0,0,0,0,0,0,0,0,0,0,0,0,0.0088,0.0089,0,0.0192,0.0193,0.0194,0.02,0.0199,0.0198,0.0197,0.0273,0.0276,0.0279,0,0,0,0,0,0,0,0,0,0,0,0,0,-0.0036,-0.0034,0.0087,0.0089,0.009,0.0192,0.0193,0.0195,0.0201,0.0199,0.0198,0.0196,0.0272,0.0276,0.0279,0,0,0,0,0,0,0,0,0,0,0,0,0,0.0038,-0.0033,0.0087,0.0105,0.0108,0.0192,0.0193,0.0195,0.0201,0.0199,0.0197,0.0196,0.0271,0.0275,0.028,0.0344,0,0,0.0294,0.0296,0,0,0,0,0,0,0,0,0.0033,0.0042,0.0101,0.0104,0.0107,0.0182,0.0178,0.0244,0.0201,0.0165,0.0197,0.0195,0.0241,0.0248,0.0272,0.0348,0.0351,0.0295,0.0297,0.0299,0.0301,0,0,0,0,0,0,0,0.0028,0.0038,0.0129,0.0103,0.0107,0.0133,0.0141,0.0191,0.0211,0.0168,0.0169,0.0182,0.0242,0.0267,0.0274,0.0352,0.0294,0.0299,0.0302,0.0303,0.0468,0.047,0,0,0,0,0,0,0.0015,0.0033,0.0125,0.0132,0.0066,0.0136,0.0145,0.0159,0.0211,0.0218,0.0183,0.0182,0.026,0.0268,0.0276,0.0332,0.0299,0.0304,0.0307,0.0467,0.0469,0.0471,0,0,0,0,0,0,0.0012,0.0022,0.0121,0.0085,0.0099,0.014,0.0156,0.0162,0.0183,0.0223,0.0228,0.0196,0.0259,0.027,0.0324,0.0335,0.0306,0.031,0.0465,0.0468,0.047,0.0459,0,0,0,0,0,0,0.0008,0.002,0.0025,0.0084,0.0101,0.0167,0.0158,0.0166,0.0194,0.0192,0.0237,0.0242,0.0259,0.0317,0.0328,0.0341,0.0314,0.0463,0.0466,0.0469,0.0457,0.046,0.0463,0,0,0,0,0,0.0003,0.0014,0.0024,0.0035,0.0106,0.0168,0.0179,0.0202,0.0196,0.0212,0.0243,0.024,0.0343,0.0322,0.0335,0.035,0.0462,0.0465,0.0469,0.0456,0.046,0.0463,0,0,0,0,0,0,-0.0042,0.0018,0.003,0.0056,0.0107,0.0168,0.0185,0.0206,0.0246,0.0238,0.027,0.0279,0.0328,0.0351,0.0327,0.0408,0.0399,0.0406,0.0385,0.0389,0.0392,0.0372,0.0318,0,0,0,0,0,-0.0047,-0.0024,0.004,0.006,0.0085,0.0137,0.0163,0.0183,0.0227,0.0242,0.0279,0.0317,0.0358,0.038,0.0421,0.0475,0.0473,0.0493,0.0496,0.0498,0.0493,0.0513,0.0516,0.0482,0.0482,0.0482,0,0,-0.0062,-0.0024,-0.0013,0.0053,0.0091,0.0135,0.0148,0.0188,0.0221,0.0247,0.0299,0.0332,0.0376,0.0428,0.0451,0.0445,0.0505,0.0502,0.0504,0.0497,0.0517,0.0519,0.0522,0.0485,0.0484,0.0484,0,0,-0.0069,-0.004,-0.002,0.0027,0.0087,0.0127,0.0138,0.0207,0.0229,0.0294,0.0312,0.0355,0.043,0.0459,0.0483,0.0535,0.0521,0.0546,0.0545,0.0565,0.0567,0.0569,0.0553,0.0553,0.0546,0.0546,0.0546,0,-0.0095,-0.0051,-0.0004,0.0036,0.0069,0.0122,0.0155,0.0201,0.0276,0.0296,0.0304,0.0405,0.0444,0.0496,0.0512,0.054,0.0533,0.0522,0.0565,0.0567,0.0569,0.0553,0.0553,0.0546,0.0546,0.0546,0.0546,0,-0.0077,-0.0041,-0.0022,0.0044,0.0087,0.0125,0.0193,0.0232,0.0267,0.0307,0.0367,0.0427,0.0475,0.0504,0.0527,0.0564,0.0547,0.0563,0.0546,0.0571,0.0553,0.0553,0.0546,0.0546,0.0546,0.0546,0,0,-0.0148,-0.0035,-0.0032,-0.0001,0.0092,0.0123,0.0183,0.0247,0.0259,0.0341,0.0363,0.0459,0.0472,0.0502,0.0534,0.0563,0.0575,0.0566,0.0567,0.0531,0.0585,0.0545,0.0542,0.0592,0.0592,0.0593,0.0559,0,-0.0154,-0.0088,-0.0026,0.0027,0.0066,0.0134,0.0176,0.0235,0.0283,0.0319,0.0386,0.042,0.0476,0.0482,0.0527,0.0561,0.058,0.0581,0.0583,0.0582,0.0528,0.0543,0.0628,0.0603,0.056,0.056,0.056,0,-0.0165,-0.0115,-0.0062,0.0014,0.0032,0.0065,0.0118,0.0165,0.0232,0.0263,0.0318,0.036,0.0422,0.0455,0.0531,0.0524,0.0553,0.0582,0.0582,0.0548,0.0545,0.0577,0.0606,0.0779,0.0561,0.0561,0.0561,0,-0.0241,-0.015,-0.0114,-0.0081,0.0016,0.0031,0.007,0.0137,0.0152,0.0212,0.0207,0.0304,0.0313,0.0397,0.0465,0.0494,0.052,0.0567,0.0557,0.0553,0.0628,0.0629,0.081,0.061,0.061,0.061,0.061,0,-0.0271,-0.0247,-0.0153,-0.0132,-0.0121,-0.0036,-0.0034,0.0016,0.0057,0.0043,0.0155,0.0141,0.0296,0.0333,0.0426,0.0474,0.0487,0.0549,0.0547,0.0625,0.0626,0.078,0.0829,0.0609,0.0609,0.061,0.061,0,-0.0347,-0.0282,-0.0242,-0.0161,-0.0151,-0.0147,-0.0109,-0.0118,-0.0066,-0.0087,-0.0081,0.0004,0.0043,0.0173,0.0276,0.0386,0.0545,0.0468,0.0525,0.0532,0.0705,0.0747,0.0838,0.0922,0.0474,0.0473,0.0472,0,-0.0368,-0.0352,-0.0288,-0.0294,-0.0262,-0.0248,-0.0258,-0.0193,-0.021,-0.019,-0.0226,-0.0189,-0.0198,-0.0055,0.0161,0.0304,0.0455,0.0478,0.057,0.072,0.0767,0.0802,0.0871,0.0663,0.0664,0.0664,0.0665,0,-0.0409,-0.0393,-0.0363,-0.0378,-0.0391,-0.0405,-0.0413,-0.0442,-0.0399,-0.0434,-0.0485,-0.0493,-0.0338,-0.0136,0.0081,0.0216,0.0618,0.049,0.0666,0.0938,0.097,0.1049,0.0649,0.067,0.0669,0.0669,0.0669,0.0669,-0.0451,-0.0453,-0.0433,-0.0456,-0.0488,-0.0556,-0.0589,-0.0634,-0.0693,-0.0752,-0.0718,-0.0677,-0.0294,0.0018,0.0164,0.064,0.0581,0.0832,0.0867,0.0886,0.0993,0.0564,0.0567,0.0566,0.0565,0.0564,0.0564,0,-0.0486,-0.0493,-0.0517,-0.0548,-0.0618,-0.0616,-0.069,-0.0738,-0.0854,-0.0874,-0.0933,-0.0489,-0.0163,0.0272,0.0857,0.1063,0.1163,0.1184,0.1332,0.1384,0.1049,0.1088,0.1181,0.1181,0.1181,0.1181,0.1181,0.118,-0.0505,-0.0529,-0.054,-0.0652,-0.0698,-0.079,-0.0841,-0.093,-0.093,-0.0881,-0.0644,-0.0446,0.0242,0.0954,0.1472,0.153,0.1719,0.1663,0.172,0.1586,0.156,0.1535,0.1592,0.1788,0.1789,0.2124,0.2127,0.213]}],[{"header":{"parameterUnit":"m.s-1","parameterCategory":2,"la1":30.2991,"la2":30.254,"lo1":-89.0895,"lo2":-89.0444,"dy":0.0017,"dx":0.0017,"nx":28,"ny":28,"refTime":"2025-02-05T09:00:00:Z","depth":"2","parameterNumber":2,"parameterNumberName":"U-component_of_CURRENTS"},"data":[0,0,0,0,0,0,0,0,0,0,0,0,0,0,0,0,0,0,0,0,0,0,0,0,0,0,0,0,0,0,0,0,0,0,0,0,0,0,0,0,0,0,0,0,0,0,0,0,0,0,0,0,0,0,0,0,0,0,-0.1689,-0.1689,0,-0.1691,-0.169,-0.169,-0.1689,-0.1689,-0.1689,-0.1689,-0.1667,-0.1667,-0.1666,0,0,0,0,0,0,0,0,0,0,0,0,0,-0.1691,-0.169,-0.1689,-0.1689,-0.169,-0.1691,-0.169,-0.169,-0.1689,-0.1689,-0.1689,-0.169,-0.1668,-0.1667,-0.1666,0,0,0,0,0,0,0,0,0,0,0,0,0,-0.1689,-0.169,-0.1689,-0.1691,-0.1691,-0.1691,-0.169,-0.169,-0.1689,-0.1689,-0.1689,-0.169,-0.1668,-0.1667,-0.1666,-0.1655,0,0,-0.1662,-0.1662,0,0,0,0,0,0,0,0,-0.1689,-0.1688,-0.169,-0.1691,-0.1691,-0.1692,-0.1683,-0.1678,-0.1689,-0.1687,-0.1689,-0.169,-0.1675,-0.1673,-0.167,-0.1654,-0.1653,-0.1662,-0.1662,-0.1661,-0.1661,0,0,0,0,0,0,0,-0.1689,-0.1688,-0.1687,-0.169,-0.1691,-0.1693,-0.1693,-0.1682,-0.1678,-0.1688,-0.1688,-0.1692,-0.1674,-0.1671,-0.1669,-0.1652,-0.1662,-0.1661,-0.1661,-0.166,-0.1663,-0.1664,0,0,0,0,0,0,-0.1693,-0.1688,-0.1687,-0.1688,-0.1693,-0.1693,-0.1693,-0.1689,-0.1678,-0.1678,-0.1691,-0.1692,-0.1673,-0.1671,-0.1669,-0.1694,-0.1661,-0.166,-0.166,-0.1663,-0.1663,-0.1664,0,0,0,0,0,0,-0.1692,-0.1692,-0.1687,-0.169,-0.169,-0.1693,-0.1689,-0.1689,-0.1691,-0.1682,-0.168,-0.1694,-0.1673,-0.167,-0.1671,-0.1692,-0.166,-0.1659,-0.1662,-0.1663,-0.1664,-0.172,0,0,0,0,0,0,-0.1692,-0.1692,-0.1691,-0.169,-0.169,-0.1697,-0.1689,-0.1689,-0.1694,-0.1694,-0.1684,-0.1682,-0.1673,-0.1673,-0.167,-0.169,-0.1658,-0.1661,-0.1662,-0.1664,-0.1717,-0.1723,-0.1728,0,0,0,0,0,-0.1692,-0.1688,-0.169,-0.169,-0.1688,-0.1698,-0.1698,-0.17,-0.1694,-0.1701,-0.1695,-0.1682,-0.168,-0.1673,-0.1669,-0.1689,-0.166,-0.1662,-0.1663,-0.1715,-0.1722,-0.1728,0,0,0,0,0,0,-0.1685,-0.1688,-0.169,-0.1686,-0.1698,-0.1699,-0.1701,-0.1702,-0.1702,-0.1699,-0.1687,-0.1686,-0.1696,-0.1682,-0.1674,-0.1694,-0.1669,-0.167,-0.171,-0.1716,-0.1721,-0.1731,-0.1657,0,0,0,0,0,-0.1684,-0.1682,-0.1692,-0.1689,-0.1696,-0.1699,-0.1702,-0.1706,-0.1706,-0.1706,-0.17,-0.1695,-0.1699,-0.1699,-0.1695,-0.1701,-0.1693,-0.1712,-0.1717,-0.1722,-0.1727,-0.1744,-0.1751,-0.167,-0.167,-0.167,0,0,-0.168,-0.1682,-0.168,-0.1688,-0.1693,-0.1713,-0.1701,-0.1709,-0.1731,-0.1703,-0.1721,-0.1711,-0.1704,-0.1718,-0.1721,-0.1709,-0.1739,-0.1724,-0.1728,-0.1731,-0.1746,-0.1754,-0.1761,-0.1671,-0.1671,-0.167,0,0,-0.1677,-0.1674,-0.1678,-0.1693,-0.1709,-0.1718,-0.1724,-0.1732,-0.1741,-0.1753,-0.1746,-0.1755,-0.1745,-0.1758,-0.176,-0.1791,-0.1766,-0.1781,-0.1817,-0.1833,-0.184,-0.1846,-0.1838,-0.1843,-0.1785,-0.1785,-0.1785,0,-0.1675,-0.1682,-0.1682,-0.17,-0.1719,-0.1724,-0.1748,-0.1761,-0.177,-0.1786,-0.1766,-0.178,-0.1771,-0.1808,-0.1816,-0.1806,-0.1794,-0.1795,-0.1841,-0.1847,-0.1852,-0.1842,-0.1847,-0.1788,-0.1787,-0.1787,-0.1787,0,-0.1681,-0.1696,-0.1702,-0.173,-0.1751,-0.1769,-0.1797,-0.1816,-0.1821,-0.1834,-0.1862,-0.1851,-0.186,-0.1861,-0.1844,-0.1882,-0.1854,-0.1846,-0.1827,-0.1864,-0.185,-0.1854,-0.1792,-0.1791,-0.179,-0.1789,0,0,-0.1659,-0.1698,-0.1703,-0.1729,-0.177,-0.1788,-0.1834,-0.1878,-0.1907,-0.1915,-0.1948,-0.1958,-0.1944,-0.1945,-0.1931,-0.1943,-0.1965,-0.1906,-0.1905,-0.1901,-0.1978,-0.1962,-0.1964,-0.196,-0.1961,-0.1962,-0.195,0,-0.1669,-0.1703,-0.1728,-0.1779,-0.1803,-0.1841,-0.1885,-0.1927,-0.1948,-0.1979,-0.199,-0.2005,-0.198,-0.1975,-0.1989,-0.1969,-0.1979,-0.1968,-0.1939,-0.1938,-0.1923,-0.197,-0.1727,-0.1697,-0.1954,-0.1954,-0.1955,0,-0.1673,-0.1697,-0.1737,-0.1809,-0.1825,-0.1858,-0.193,-0.1969,-0.2024,-0.204,-0.2064,-0.2059,-0.2082,-0.2045,-0.2052,-0.204,-0.2013,-0.1998,-0.1997,-0.1967,-0.1931,-0.1703,-0.1694,-0.1961,-0.196,-0.196,-0.196,0,-0.1648,-0.1713,-0.1743,-0.1765,-0.1838,-0.1871,-0.1914,-0.1979,-0.2019,-0.2067,-0.2087,-0.2115,-0.2113,-0.2106,-0.2074,-0.2057,-0.2071,-0.2047,-0.2012,-0.2009,-0.1791,-0.1768,-0.2057,-0.2057,-0.2057,-0.2057,-0.2057,0,-0.1644,-0.1676,-0.1731,-0.1745,-0.1797,-0.1856,-0.1913,-0.1962,-0.2027,-0.2071,-0.2101,-0.2122,-0.2126,-0.213,-0.2098,-0.2072,-0.2094,-0.2029,-0.2016,-0.1803,-0.1782,-0.2001,-0.1995,-0.2056,-0.2056,-0.2056,-0.2057,0,-0.1606,-0.1644,-0.1681,-0.175,-0.1779,-0.1807,-0.1904,-0.1948,-0.2011,-0.2064,-0.2077,-0.2128,-0.2141,-0.2148,-0.2134,-0.2097,-0.2078,-0.2061,-0.1806,-0.1765,-0.1991,-0.1988,-0.2018,-0.2018,-0.2017,-0.2017,-0.2017,0,-0.1588,-0.1594,-0.1658,-0.1685,-0.1714,-0.1775,-0.1826,-0.1919,-0.1965,-0.2058,-0.2076,-0.2118,-0.2095,-0.2091,-0.2014,-0.1965,-0.2081,-0.1788,-0.1733,-0.2009,-0.1993,-0.199,-0.1988,-0.1446,-0.1441,-0.1437,-0.1434,0,-0.154,-0.1553,-0.1577,-0.1623,-0.1673,-0.1737,-0.181,-0.1842,-0.1947,-0.1962,-0.1981,-0.196,-0.1943,-0.1785,-0.1772,-0.1717,-0.1781,-0.1711,-0.2051,-0.1522,-0.1476,-0.1459,-0.1473,-0.1398,-0.1401,-0.1404,-0.1406,-0.1407,-0.1497,-0.1487,-0.151,-0.155,-0.1619,-0.1669,-0.1663,-0.1719,-0.1731,-0.1717,-0.1806,-0.1709,-0.1677,-0.151,-0.1445,-0.1418,-0.1541,-0.1493,-0.1501,-0.1515,-0.148,-0.144,-0.1345,-0.1348,-0.1351,-0.1353,-0.1356,0,-0.142,-0.1417,-0.1447,-0.1483,-0.1521,-0.1583,-0.163,-0.1565,-0.1485,-0.1521,-0.1465,-0.129,-0.116,-0.1207,-0.1046,-0.1026,-0.0953,-0.1055,-0.0946,-0.098,-0.1011,-0.0948,-0.0673,-0.0672,-0.0671,-0.067,0,0,-0.1382,-0.1353,-0.1352,-0.1363,-0.14,-0.1366,-0.1349,-0.1228,-0.1192,-0.1094,-0.1052,-0.1082,-0.1122,-0.0897,-0.0829,-0.0746,-0.0861,-0.07,-0.123,-0.1131,-0.1161,-0.123,-0.1169,0,0,0,0,0]},{"header":{"parameterUnit":"m.s-1","parameterCategory":2,"la1":30.2991,"la2":30.254,"lo1":-89.0895,"lo2":-89.0444,"dy":0.0017,"dx":0.0017,"nx":28,"ny":28,"refTime":"2025-02-05T09:00:00:Z","depth":"2","parameterNumber":3,"parameterNumberName":"V-component_of_CURRENTS"},"data":[0,0,0,0,0,0,0,0,0,0,0,0,0,0,0,0,0,0,0,0,0,0,0,0,0,0,0,0,0,0,0,0,0,0,0,0,0,0,0,0,0,0,0,0,0,0,0,0,0,0,0,0,0,0,0,0,0,0,-0.0096,-0.0096,0,-0.0103,-0.0103,-0.0103,-0.0086,-0.0086,-0.0086,-0.0085,-0.0035,-0.0034,-0.0033,0,0,0,0,0,0,0,0,0,0,0,0,0,-0.0043,-0.0044,-0.0096,-0.0096,-0.0096,-0.0103,-0.0103,-0.0103,-0.0086,-0.0086,-0.0085,-0.0085,-0.0035,-0.0034,-0.0033,0,0,0,0,0,0,0,0,0,0,0,0,0,-0.0058,-0.0045,-0.0096,-0.009,-0.009,-0.0103,-0.0103,-0.0103,-0.0086,-0.0086,-0.0085,-0.0085,-0.0035,-0.0034,-0.0032,-0.0035,0,0,-0.0028,-0.0027,0,0,0,0,0,0,0,0,-0.0057,-0.006,-0.0091,-0.0091,-0.009,-0.0095,-0.0066,-0.0078,-0.0087,-0.0086,-0.0085,-0.0085,-0.0051,-0.0048,-0.0049,-0.0032,-0.003,-0.0028,-0.0027,-0.0026,-0.0026,0,0,0,0,0,0,0,-0.0056,-0.0059,-0.0097,-0.0091,-0.0091,-0.0079,-0.008,-0.0068,-0.0069,-0.0086,-0.0085,-0.0089,-0.005,-0.0051,-0.0048,-0.0029,-0.0028,-0.0027,-0.0026,-0.0025,0.0012,0.0012,0,0,0,0,0,0,-0.0061,-0.0059,-0.0097,-0.0097,-0.0074,-0.008,-0.0082,-0.0092,-0.007,-0.0068,-0.0089,-0.0088,-0.0054,-0.0049,-0.0046,-0.0033,-0.0026,-0.0025,-0.0024,0.0012,0.0012,0.0012,0,0,0,0,0,0,-0.006,-0.0065,-0.0097,-0.0079,-0.0082,-0.0082,-0.0094,-0.0093,-0.009,-0.0074,-0.0069,-0.0087,-0.0053,-0.0048,-0.0037,-0.0031,-0.0024,-0.0023,0.0012,0.0012,0.0012,-0.0015,0,0,0,0,0,0,-0.0059,-0.0064,-0.0073,-0.008,-0.0084,-0.0112,-0.0095,-0.0094,-0.0094,-0.0092,-0.007,-0.0065,-0.0052,-0.0039,-0.0035,-0.0029,-0.0022,0.0012,0.0012,0.0012,-0.0014,-0.0016,-0.0017,0,0,0,0,0,-0.0057,-0.0075,-0.0073,-0.0078,-0.0096,-0.0113,-0.0114,-0.011,-0.0094,-0.0102,-0.0083,-0.0066,-0.0035,-0.0038,-0.0034,-0.0027,0.0012,0.0012,0.0012,-0.0014,-0.0016,-0.0017,0,0,0,0,0,0,-0.0057,-0.0076,-0.0073,-0.0096,-0.0106,-0.0111,-0.0118,-0.011,-0.0102,-0.0093,-0.0071,-0.0065,-0.005,-0.0037,-0.0041,-0.0014,-0.0006,-0.0005,-0.0027,-0.0029,-0.003,-0.0039,-0.002,0,0,0,0,0,-0.0062,-0.008,-0.0092,-0.011,-0.0115,-0.0114,-0.0118,-0.0115,-0.011,-0.0105,-0.009,-0.0068,-0.0047,-0.0038,-0.0022,-0.0013,0.002,-0.0003,-0.0004,-0.0006,-0.0009,0.005,0.0053,0.0013,0.0013,0.0013,0,0,-0.0067,-0.0079,-0.0089,-0.0111,-0.0115,-0.0136,-0.0115,-0.0125,-0.0133,-0.01,-0.0102,-0.0074,-0.0046,-0.0034,-0.0026,-0.0022,0.0023,-0.0005,-0.0007,-0.0009,0.005,0.0054,0.0058,0.0013,0.0013,0.0013,0,0,-0.0093,-0.0097,-0.0123,-0.0134,-0.0147,-0.0148,-0.0151,-0.0154,-0.0147,-0.0146,-0.0116,-0.0084,-0.0069,-0.0041,-0.0024,-0.0023,0.0013,-0.0019,-0.0034,0.0023,0.0027,0.003,0.0075,0.0083,-0.002,-0.002,-0.002,0,-0.0099,-0.0135,-0.0132,-0.016,-0.0174,-0.0155,-0.0184,-0.0176,-0.0174,-0.0161,-0.015,-0.0094,-0.0068,-0.0035,-0.0037,-0.0025,0.0005,-0.0031,0.0021,0.0026,0.003,0.0075,0.0084,-0.0022,-0.0022,-0.0021,-0.0021,0,-0.0147,-0.0174,-0.019,-0.022,-0.023,-0.0252,-0.0245,-0.0241,-0.0221,-0.0203,-0.0164,-0.0122,-0.0086,-0.0068,-0.0055,-0.0011,-0.0001,0.0013,0.0025,0.0033,0.0079,0.009,-0.0024,-0.0023,-0.0023,-0.0022,0,0,-0.0175,-0.0217,-0.0225,-0.025,-0.0265,-0.0282,-0.0284,-0.0281,-0.0269,-0.0237,-0.0212,-0.0163,-0.0121,-0.0099,-0.0063,-0.0015,0.0044,0.0003,0.0007,0.0046,0.0161,0.0211,0.0228,0.0066,0.0068,0.0069,0.018,0,-0.0219,-0.0287,-0.0289,-0.0344,-0.038,-0.0359,-0.0364,-0.0346,-0.0311,-0.0279,-0.0204,-0.0168,-0.0138,-0.0112,-0.0058,0.0021,0.0069,0.0012,0.0149,0.0153,0.0196,0.0241,0.0147,0.0242,0.019,0.0192,0.0193,0,-0.0272,-0.0313,-0.0378,-0.0414,-0.0424,-0.0439,-0.0432,-0.0432,-0.0366,-0.0336,-0.0269,-0.021,-0.013,-0.0106,0.0038,-0.0002,0.0071,0.0133,0.014,0.0203,0.0223,0.0228,0.0263,0.0211,0.0209,0.0208,0.0207,0,-0.0313,-0.0375,-0.0429,-0.0445,-0.0477,-0.0482,-0.0485,-0.0442,-0.0433,-0.0361,-0.0326,-0.0228,-0.016,-0.006,0.0072,0.0056,0.0234,0.0234,0.0348,0.0352,0.0309,0.0307,0.0334,0.0334,0.0333,0.0333,0.0333,0,-0.0369,-0.0412,-0.045,-0.0483,-0.0531,-0.0525,-0.054,-0.0521,-0.0472,-0.0434,-0.0352,-0.0276,-0.0144,-0.0022,0.0075,0.0255,0.0245,0.0359,0.0394,0.0297,0.0293,0.029,0.0283,0.0337,0.0336,0.0336,0.0335,0,-0.0407,-0.0436,-0.0503,-0.0543,-0.0555,-0.0585,-0.0594,-0.0593,-0.0537,-0.0477,-0.0454,-0.0303,-0.0134,-0.0004,0.0181,0.0279,0.0424,0.0482,0.0357,0.0376,0.0499,0.0489,0.0628,0.0631,0.0633,0.0635,0.0637,0,-0.0436,-0.0475,-0.0547,-0.0589,-0.0609,-0.0645,-0.0664,-0.0636,-0.0613,-0.0469,-0.0428,-0.0257,-0.0114,0.0167,0.0308,0.0479,0.0504,0.0551,0.0517,0.0514,0.0534,0.052,0.0507,0.0441,0.0441,0.0441,0.0441,0,-0.0485,-0.0505,-0.0558,-0.0649,-0.069,-0.073,-0.0732,-0.0719,-0.0642,-0.0566,-0.0396,-0.027,-0.0017,0.0159,0.0378,0.0477,0.0513,0.0562,0.0602,0.0389,0.035,0.0364,0.0356,0.044,0.044,0.044,0.044,0.044,-0.0511,-0.056,-0.063,-0.0714,-0.0762,-0.0784,-0.0792,-0.0758,-0.0702,-0.0564,-0.0418,-0.0231,-0.004,0.0236,0.0393,0.0531,0.0547,0.0598,0.0592,0.0588,0.0556,0.0524,0.064,0.0641,0.0642,0.0643,0.0643,0,-0.055,-0.0607,-0.0692,-0.0779,-0.0835,-0.0843,-0.0822,-0.0796,-0.0712,-0.0582,-0.0447,-0.0233,-0.0025,0.0184,0.0365,0.0523,0.0468,0.0585,0.0462,0.0461,0.0461,0.0417,0.0468,0.0468,0.0468,0.0468,0,0,-0.0577,-0.0664,-0.0716,-0.0829,-0.0876,-0.0904,-0.0883,-0.0813,-0.0718,-0.0589,-0.0466,-0.0315,-0.0034,0.008,0.0245,0.0357,0.0374,0.037,0.0487,0.0318,0.0316,0.044,0.037,0,0,0,0,0]}],[{"header":{"parameterUnit":"m.s-1","parameterCategory":2,"la1":30.2991,"la2":30.254,"lo1":-89.0895,"lo2":-89.0444,"dy":0.0017,"dx":0.0017,"nx":28,"ny":28,"refTime":"2025-02-05T09:00:00:Z","depth":"4","parameterNumber":2,"parameterNumberName":"U-component_of_CURRENTS"},"data":[0,0,0,0,0,0,0,0,0,0,0,0,0,0,0,0,0,0,0,0,0,0,0,0,0,0,0,0,0,0,0,0,0,0,0,0,0,0,0,0,0,0,0,0,0,0,0,0,0,0,0,0,0,0,0,0,0,0,-0.0806,-0.0807,0,-0.0885,-0.0886,-0.0887,-0.0918,-0.0917,-0.0917,-0.0917,-0.1009,-0.1012,-0.1015,0,0,0,0,0,0,0,0,0,0,0,0,0,-0.0716,-0.0717,-0.0806,-0.0807,-0.0808,-0.0884,-0.0886,-0.0887,-0.0918,-0.0917,-0.0917,-0.0917,-0.1008,-0.1012,-0.1015,0,0,0,0,0,0,0,0,0,0,0,0,0,-0.0772,-0.0718,-0.0806,-0.0832,-0.0835,-0.0884,-0.0886,-0.0887,-0.0918,-0.0917,-0.0917,-0.0917,-0.1007,-0.1011,-0.1015,-0.1049,0,0,-0.1028,-0.103,0,0,0,0,0,0,0,0,-0.0769,-0.0775,-0.0827,-0.083,-0.0833,-0.089,-0.0888,-0.0942,-0.0918,-0.0887,-0.0917,-0.0916,-0.097,-0.0978,-0.0995,-0.1054,-0.1058,-0.1028,-0.1031,-0.1033,-0.1034,0,0,0,0,0,0,0,-0.0765,-0.0772,-0.0838,-0.0828,-0.0832,-0.0851,-0.0858,-0.0898,-0.0931,-0.089,-0.0892,-0.09,-0.0972,-0.099,-0.0997,-0.1059,-0.1028,-0.1032,-0.1034,-0.1036,-0.1196,-0.1198,0,0,0,0,0,0,-0.0752,-0.0768,-0.0835,-0.084,-0.0798,-0.0853,-0.0861,-0.0873,-0.0931,-0.0939,-0.09,-0.0901,-0.0984,-0.0992,-0.1,-0.1105,-0.1033,-0.1036,-0.1039,-0.1194,-0.1196,-0.1198,0,0,0,0,0,0,-0.075,-0.0757,-0.0832,-0.0805,-0.0816,-0.0854,-0.0868,-0.0875,-0.0906,-0.0938,-0.0946,-0.0925,-0.0984,-0.0995,-0.1042,-0.1106,-0.1038,-0.1042,-0.1192,-0.1195,-0.1197,-0.1274,0,0,0,0,0,0,-0.0747,-0.0756,-0.0768,-0.0804,-0.0817,-0.0868,-0.0869,-0.0877,-0.091,-0.0912,-0.0963,-0.097,-0.0984,-0.1035,-0.1046,-0.111,-0.1045,-0.119,-0.1193,-0.1196,-0.127,-0.1279,-0.1288,0,0,0,0,0,-0.0744,-0.0761,-0.0769,-0.0777,-0.083,-0.0869,-0.0878,-0.0904,-0.0912,-0.093,-0.0959,-0.0969,-0.1064,-0.104,-0.1051,-0.1119,-0.1188,-0.1192,-0.1196,-0.1266,-0.1277,-0.1288,0,0,0,0,0,0,-0.073,-0.0767,-0.0776,-0.0804,-0.0836,-0.0874,-0.0896,-0.0915,-0.0954,-0.0959,-0.0986,-0.0995,-0.1073,-0.1073,-0.1045,-0.1173,-0.1132,-0.1138,-0.118,-0.1192,-0.1201,-0.119,-0.1049,0,0,0,0,0,-0.0732,-0.0754,-0.0789,-0.0813,-0.083,-0.0867,-0.0889,-0.0908,-0.0943,-0.0961,-0.1001,-0.1042,-0.1098,-0.1122,-0.1168,-0.1226,-0.12,-0.1278,-0.1287,-0.1295,-0.1294,-0.1326,-0.1338,-0.1211,-0.1211,-0.1211,0,0,-0.0732,-0.0755,-0.0768,-0.0811,-0.0839,-0.0867,-0.088,-0.0919,-0.0948,-0.0965,-0.1029,-0.1083,-0.1122,-0.1198,-0.1232,-0.1205,-0.1308,-0.13,-0.1307,-0.1301,-0.1332,-0.1344,-0.1355,-0.1214,-0.1214,-0.1213,0,0,-0.0739,-0.0767,-0.0785,-0.0816,-0.0858,-0.088,-0.0893,-0.0947,-0.0979,-0.104,-0.1075,-0.1154,-0.1223,-0.1275,-0.1306,-0.1387,-0.1363,-0.1414,-0.1448,-0.1481,-0.1491,-0.15,-0.1438,-0.1441,-0.1409,-0.1409,-0.1409,0,-0.0732,-0.0766,-0.0798,-0.0826,-0.0851,-0.0885,-0.0912,-0.095,-0.1016,-0.1046,-0.1064,-0.1199,-0.1262,-0.1342,-0.14,-0.1413,-0.1389,-0.1406,-0.1493,-0.1501,-0.1509,-0.1444,-0.1446,-0.1413,-0.1413,-0.1412,-0.1412,0,-0.0757,-0.0785,-0.0802,-0.0842,-0.0875,-0.0907,-0.0955,-0.0995,-0.1041,-0.1085,-0.1185,-0.1267,-0.1355,-0.1399,-0.1442,-0.1543,-0.149,-0.1508,-0.1463,-0.1527,-0.1453,-0.1454,-0.1419,-0.1418,-0.1417,-0.1416,0,0,-0.0726,-0.0801,-0.0808,-0.083,-0.0888,-0.0915,-0.0963,-0.1018,-0.105,-0.1137,-0.1192,-0.1346,-0.1415,-0.1455,-0.1523,-0.156,-0.1627,-0.1577,-0.1577,-0.1508,-0.1631,-0.1512,-0.15,-0.1668,-0.167,-0.1671,-0.1539,0,-0.0729,-0.0779,-0.0822,-0.0866,-0.0888,-0.0937,-0.0978,-0.1035,-0.1091,-0.1155,-0.1247,-0.1346,-0.1426,-0.1503,-0.1565,-0.1626,-0.1641,-0.1656,-0.1584,-0.1579,-0.1465,-0.1504,-0.1677,-0.1539,-0.154,-0.154,-0.154,0,-0.073,-0.0763,-0.0812,-0.0872,-0.089,-0.0925,-0.0986,-0.1038,-0.112,-0.1174,-0.1272,-0.1351,-0.1475,-0.1525,-0.1614,-0.1622,-0.1653,-0.1656,-0.1652,-0.1517,-0.1466,-0.1474,-0.1541,-0.1541,-0.1541,-0.1541,-0.154,0,-0.0682,-0.0752,-0.079,-0.0815,-0.089,-0.0924,-0.0972,-0.1047,-0.1082,-0.1204,-0.1233,-0.1368,-0.1451,-0.1514,-0.1591,-0.1625,-0.1608,-0.1647,-0.1526,-0.1513,-0.1622,-0.1615,-0.1686,-0.1686,-0.1686,-0.1687,-0.1687,0,-0.0655,-0.0686,-0.0776,-0.0796,-0.0838,-0.0912,-0.0961,-0.1023,-0.1094,-0.1125,-0.1271,-0.1295,-0.147,-0.1492,-0.1547,-0.1516,-0.1582,-0.1521,-0.1491,-0.1649,-0.1647,-0.1619,-0.1613,-0.1682,-0.1683,-0.1684,-0.1685,0,-0.0601,-0.0656,-0.0703,-0.0792,-0.0816,-0.0858,-0.0937,-0.096,-0.105,-0.1083,-0.1131,-0.1257,-0.1312,-0.1373,-0.1448,-0.1444,-0.1427,-0.1393,-0.1476,-0.1453,-0.1307,-0.1307,-0.1247,-0.1242,-0.1238,-0.1234,-0.1232,0,-0.0579,-0.0603,-0.0694,-0.0706,-0.075,-0.0812,-0.0836,-0.0934,-0.0952,-0.1028,-0.1027,-0.1111,-0.1189,-0.1148,-0.1256,-0.1258,-0.1283,-0.1231,-0.1366,-0.1295,-0.1272,-0.1278,-0.1283,-0.1225,-0.1224,-0.1223,-0.1222,0,-0.0538,-0.0586,-0.0624,-0.065,-0.0679,-0.0711,-0.0759,-0.0759,-0.0854,-0.0913,-0.0932,-0.0976,-0.1002,-0.1087,-0.1085,-0.1103,-0.1252,-0.1189,-0.12,-0.1327,-0.1268,-0.125,-0.126,-0.1208,-0.121,-0.1211,-0.1212,0,-0.0515,-0.0529,-0.0573,-0.0594,-0.061,-0.0612,-0.0654,-0.0679,-0.0715,-0.0806,-0.0795,-0.0881,-0.0974,-0.0997,-0.0985,-0.1,-0.1037,-0.104,-0.106,-0.1076,-0.1095,-0.1,-0.0822,0,0,0,0,0,-0.0482,-0.0495,-0.0504,-0.0521,-0.0529,-0.0545,-0.0591,-0.0634,-0.0702,-0.0692,-0.0751,-0.0778,-0.082,-0.0867,-0.0861,-0.0917,-0.1031,-0.0903,-0.1042,-0.1129,-0.1145,-0.1191,0,0,0,0,0,0,-0.0471,-0.0478,-0.0486,-0.0446,-0.0441,-0.045,-0.0483,-0.0534,-0.055,-0.0626,-0.0668,-0.0719,-0.0788,-0.0818,-0.0843,-0.0853,-0.0924,-0.0953,-0.0951,-0.1119,-0.1134,-0.1148,-0.12,0,0,0,0,0]},{"header":{"parameterUnit":"m.s-1","parameterCategory":2,"la1":30.2991,"la2":30.254,"lo1":-89.0895,"lo2":-89.0444,"dy":0.0017,"dx":0.0017,"nx":28,"ny":28,"refTime":"2025-02-05T09:00:00:Z","depth":"4","parameterNumber":3,"parameterNumberName":"V-component_of_CURRENTS"},"data":[0,0,0,0,0,0,0,0,0,0,0,0,0,0,0,0,0,0,0,0,0,0,0,0,0,0,0,0,0,0,0,0,0,0,0,0,0,0,0,0,0,0,0,0,0,0,0,0,0,0,0,0,0,0,0,0,0,0,-0.0304,-0.0304,0,-0.0286,-0.0285,-0.0285,-0.0254,-0.0254,-0.0253,-0.0253,-0.02,-0.02,-0.0199,0,0,0,0,0,0,0,0,0,0,0,0,0,-0.0297,-0.0297,-0.0304,-0.0304,-0.0304,-0.0286,-0.0285,-0.0285,-0.0254,-0.0254,-0.0253,-0.0252,-0.0201,-0.02,-0.0199,0,0,0,0,0,0,0,0,0,0,0,0,0,-0.0291,-0.0297,-0.0304,-0.0286,-0.0285,-0.0286,-0.0285,-0.0285,-0.0254,-0.0254,-0.0253,-0.0252,-0.0201,-0.02,-0.0199,-0.0207,0,0,-0.0194,-0.0194,0,0,0,0,0,0,0,0,-0.0291,-0.0291,-0.0289,-0.0288,-0.0286,-0.0272,-0.0264,-0.0257,-0.0255,-0.0266,-0.0253,-0.0252,-0.0222,-0.0219,-0.0217,-0.0204,-0.0202,-0.0194,-0.0194,-0.0193,-0.0193,0,0,0,0,0,0,0,-0.0292,-0.0292,-0.0296,-0.0289,-0.0287,-0.0274,-0.0272,-0.0262,-0.0248,-0.0265,-0.0262,-0.0261,-0.0221,-0.0219,-0.0216,-0.0201,-0.0194,-0.0193,-0.0192,-0.0192,-0.0206,-0.0207,0,0,0,0,0,0,-0.0297,-0.0292,-0.0297,-0.0296,-0.0287,-0.0275,-0.0273,-0.0277,-0.0248,-0.0244,-0.0262,-0.026,-0.0221,-0.0217,-0.0214,-0.0239,-0.0193,-0.0192,-0.0191,-0.0205,-0.0206,-0.0207,0,0,0,0,0,0,-0.0297,-0.0298,-0.0298,-0.0293,-0.0293,-0.0276,-0.028,-0.0277,-0.0272,-0.0247,-0.0241,-0.0261,-0.022,-0.0216,-0.0215,-0.0236,-0.0191,-0.019,-0.0203,-0.0205,-0.0207,-0.0278,0,0,0,0,0,0,-0.0297,-0.0298,-0.0306,-0.0294,-0.0293,-0.0304,-0.0281,-0.0277,-0.0273,-0.027,-0.0244,-0.0239,-0.0219,-0.0218,-0.0214,-0.0233,-0.0189,-0.0202,-0.0204,-0.0206,-0.0274,-0.0282,-0.0289,0,0,0,0,0,-0.0297,-0.0308,-0.0307,-0.0308,-0.0304,-0.0304,-0.0303,-0.0287,-0.0274,-0.0279,-0.0266,-0.0239,-0.0229,-0.0218,-0.0213,-0.0232,-0.0201,-0.0203,-0.0206,-0.0271,-0.028,-0.0288,0,0,0,0,0,0,-0.0304,-0.0306,-0.0304,-0.0315,-0.0314,-0.0299,-0.0302,-0.0291,-0.0285,-0.0282,-0.0254,-0.0248,-0.0255,-0.0236,-0.0225,-0.0243,-0.0211,-0.0212,-0.0262,-0.027,-0.0277,-0.0276,-0.0188,0,0,0,0,0,-0.0313,-0.0324,-0.032,-0.0329,-0.033,-0.0318,-0.0317,-0.0309,-0.03,-0.0296,-0.0282,-0.0269,-0.0264,-0.026,-0.0251,-0.0262,-0.0214,-0.0272,-0.0279,-0.0286,-0.0282,-0.0219,-0.022,-0.0216,-0.0216,-0.0216,0,0,-0.032,-0.032,-0.0327,-0.0332,-0.0328,-0.0345,-0.0315,-0.0318,-0.0336,-0.0292,-0.0312,-0.0293,-0.0272,-0.0286,-0.0288,-0.0272,-0.0265,-0.0289,-0.0294,-0.0287,-0.0222,-0.0222,-0.0222,-0.0218,-0.0217,-0.0217,0,0,-0.0336,-0.0338,-0.0354,-0.0361,-0.0363,-0.0362,-0.0365,-0.0361,-0.0363,-0.0381,-0.0354,-0.0351,-0.0346,-0.0337,-0.0331,-0.0373,-0.0304,-0.0368,-0.0405,-0.0345,-0.0344,-0.0342,-0.0293,-0.0287,-0.0374,-0.0374,-0.0374,0,-0.0344,-0.0365,-0.0358,-0.0376,-0.039,-0.0374,-0.04,-0.0404,-0.0404,-0.0413,-0.0398,-0.0395,-0.0374,-0.0386,-0.0397,-0.0389,-0.0337,-0.0374,-0.0352,-0.035,-0.0347,-0.0297,-0.0289,-0.0378,-0.0377,-0.0377,-0.0376,0,-0.0371,-0.0395,-0.0404,-0.0429,-0.0444,-0.046,-0.0471,-0.0487,-0.0489,-0.0491,-0.0505,-0.048,-0.047,-0.0471,-0.0443,-0.0427,-0.039,-0.0365,-0.0327,-0.0351,-0.0297,-0.0288,-0.0383,-0.0382,-0.038,-0.038,0,0,-0.037,-0.0417,-0.0421,-0.0449,-0.0476,-0.049,-0.053,-0.0558,-0.0576,-0.0583,-0.0602,-0.0595,-0.0564,-0.0553,-0.0519,-0.0472,-0.0412,-0.0408,-0.0403,-0.0354,-0.0271,-0.0238,-0.0223,-0.0367,-0.0366,-0.0364,-0.0245,0,-0.0395,-0.0444,-0.0465,-0.0522,-0.0551,-0.0568,-0.0603,-0.0628,-0.0638,-0.0652,-0.0637,-0.0636,-0.0601,-0.0585,-0.0536,-0.0445,-0.0387,-0.0446,-0.0259,-0.0254,-0.0216,-0.0211,-0.036,-0.0238,-0.0235,-0.0233,-0.0232,0,-0.0416,-0.0447,-0.0508,-0.0572,-0.0586,-0.0623,-0.0673,-0.0703,-0.0722,-0.0726,-0.0724,-0.0694,-0.0657,-0.0604,-0.0468,-0.0499,-0.0383,-0.0308,-0.0301,-0.0234,-0.0202,-0.0204,-0.0214,-0.0215,-0.0216,-0.0218,-0.0219,0,-0.0412,-0.0481,-0.0532,-0.0554,-0.0619,-0.0657,-0.0694,-0.0726,-0.0745,-0.0764,-0.076,-0.0726,-0.0687,-0.0567,-0.0422,-0.0425,-0.0248,-0.0235,-0.0101,-0.0097,-0.0131,-0.0133,-0.0104,-0.0104,-0.0105,-0.0105,-0.0105,0,-0.0428,-0.0471,-0.0538,-0.0565,-0.0626,-0.067,-0.0724,-0.0756,-0.0779,-0.0786,-0.0785,-0.0756,-0.0661,-0.0556,-0.0426,-0.024,-0.0246,-0.0098,-0.0058,-0.0168,-0.0175,-0.0124,-0.0128,-0.01,-0.0101,-0.0102,-0.0103,0,-0.042,-0.0462,-0.0525,-0.0602,-0.0628,-0.0673,-0.0744,-0.077,-0.0794,-0.0797,-0.0797,-0.0759,-0.0625,-0.0519,-0.0321,-0.0232,-0.0071,0.0011,-0.0124,-0.0096,0.0039,0.003,0.0158,0.0161,0.0163,0.0164,0.0166,0,-0.0423,-0.0451,-0.0541,-0.0579,-0.062,-0.0686,-0.0723,-0.0773,-0.0784,-0.0777,-0.0761,-0.0667,-0.0614,-0.0345,-0.023,-0.0015,0.0033,0.0097,0.0074,0.0044,0.0069,0.0057,0.0045,0.0169,0.0169,0.017,0.017,0,-0.0425,-0.0457,-0.0506,-0.0576,-0.0631,-0.0687,-0.0736,-0.0737,-0.0766,-0.0779,-0.0697,-0.0594,-0.0445,-0.0297,-0.0135,0.0025,0.0026,0.0118,0.0115,0.0094,0.0058,0.0078,0.0064,0.0177,0.0176,0.0175,0.0175,0,-0.0421,-0.0456,-0.0515,-0.0577,-0.0638,-0.0675,-0.0707,-0.0702,-0.071,-0.0689,-0.0646,-0.0531,-0.0471,-0.0269,-0.0114,0.0025,0.0069,0.0103,0.0102,0.0096,0.0033,-0.0026,0.0112,0,0,0,0,0,-0.0412,-0.0453,-0.0513,-0.0583,-0.0637,-0.0672,-0.0706,-0.0724,-0.0727,-0.0654,-0.065,-0.0507,-0.0302,-0.0232,-0.0077,-0.0074,0.0084,0.0111,0.012,0.0215,0.0207,0.0146,0,0,0,0,0,0,-0.0414,-0.0467,-0.0506,-0.0567,-0.0609,-0.0666,-0.0688,-0.0693,-0.0646,-0.063,-0.0519,-0.047,-0.0271,-0.0384,-0.0075,-0.0037,-0.0009,0.02,0.0204,0.0219,0.0212,0.0206,0.014,0,0,0,0,0]}]]